Regional Weather Roundup
Issued by NWS Upton, NY

Current Version | Previous Version | Graphics & Text | Print | Product List | Glossary Off
Versions: 1 2 3 4 5 6 7 8 9 10 11 12 13 14 15 16 17 18 19 20 21 22 23 24 25 26 27 28 29 30 31 32 33 34 35 36 37 38 39 40 41 42 43 44 45 46 47 48 49 50

317
ASUS41 KOKX 260305
RWROKX

Regional Weather Roundup
National Weather Service New York NY
1100 PM EDT WED APR 25 2018

Note: "FAIR" indicates few or no clouds below 12,000 feet with no
significant weather and/or obstructions to visibility.

NYZ071-072-176-178-NJZ106-104-260400-
New York City Metro Area

CITY           SKY/WX    TMP DP  RH WIND       PRES   REMARKS
Central Park   CLOUDY    56  55  97 CALM      29.68F FOG
Bronx Bot Gard   N/A     54  52  94 CALM      29.68R
Bronx Lehman C   N/A     54  54 100 SE3         N/A
LaGuardia Arpt FOG       54  52  93 NE3       29.66F VSB 3/4
Queens College   N/A     54  54 100 S2          N/A
Kennedy Intl   FOG       52  52 100 SW3       29.67F VSB 1/4
Breezy Point     N/A     50 N/A N/A N2          N/A
Brooklyn Coll    N/A     52  52 100 NE2         N/A
Staten Island    N/A     55  54  94 E2          N/A
Newark/Liberty CLOUDY    56  55  97 E3        29.65F FOG
Teterboro      FOG       57  56  96 CALM      29.65F VSB 1
$$

NYZ177-179-078>081-260400-
Long Island New York

CITY           SKY/WX    TMP DP  RH WIND       PRES   REMARKS
Jones Beach      N/A     50 N/A N/A S6          N/A
Wantagh          N/A     52  52 100 SE6         N/A
Hempstead        N/A     52  52 100 SE2       29.68F
Matinecock Pt    N/A     48 N/A N/A N2          N/A
Farmingdale    FOG       52  52 100 S5        29.66F VSB 1/2
MacArthur/ISP  FOG       51  51 100 S8        29.67S VSB 1/4
Stony Brook      N/A     54  52  94 S5          N/A
Shirley        FOG       52  52 100 S10       29.68S VSB 1/4
Mt Sinai Harb    N/A    N/A N/A N/A S6          N/A
Westhampton    FOG       52  51  97 SW9       29.69F VSB 1/2
East Hampton   CLOUDY    53  53  99 SW9       29.67F
Southold         N/A     52  52 100 S14         N/A
Montauk          N/A     53  52  96 S8        29.69F
$$

NYZ052-065-067-260400-
Hudson Valley

CITY           SKY/WX    TMP DP  RH WIND       PRES   REMARKS
White Plains   FOG       54  54 100 CALM      29.65F VSB 1/4
Larchmont Harb   N/A     48 N/A N/A NE6         N/A
Croton On Huds   N/A     54 N/A N/A E2          N/A
Somers           N/A     55  55 100 SE1         N/A
Brewster         N/A     54  54 100 W1          N/A
Newburgh       CLOUDY    57  57 100 CALM      29.67F FOG
Montgomery     CLOUDY    57  56  96 CALM      29.65F FOG
Otisville        N/A     55  55 100 CALM        N/A
Warwick          N/A     57  57 100 W2          N/A
Suffern          N/A     55  55 100 SW1         N/A
Poughkeepsie   CLOUDY    57  56  96 CALM      29.64F FOG
Albany         LGT RAIN  55  52  89 CALM      29.66F FOG
$$

NJZ001-105-106-008-010-013-015-019>022-104-260400-
New Jersey

CITY           SKY/WX    TMP DP  RH WIND       PRES   REMARKS
Newark/Liberty CLOUDY    56  55  97 E3        29.65F FOG
Teterboro      FOG       57  56  96 CALM      29.65F VSB 1
Caldwell       CLOUDY    57  57 100 CALM      29.66F FOG
Somerville     CLOUDY    58  58 100 CALM      29.65S FOG
Linden         CLOUDY    55  53  91 CALM      29.65F FOG
Perth Amboy      N/A     52 N/A N/A SE5         N/A
Sussex         CLOUDY    57  57 100 CALM      29.67S FOG
Andover          N/A     57  57 100 CALM      29.67F
Trenton        LGT RAIN  60  59  96 CALM      29.66F FOG
Millville      CLOUDY    61  58  90 W7        29.66F
Atlantic City  CLOUDY    55  55 100 CALM      29.66
Wrightstown    LGT RAIN  59  59  99 NW3       29.63
Toms River     FOG       56  56 100 CALM      29.66F VSB 1/4
Belmar         CLOUDY    55  54  96 CALM      29.67S FOG
$$

PAZ047>061-062-071-260400-
Eastern Pennsylvania

CITY           SKY/WX    TMP DP  RH WIND       PRES   REMARKS
Philadelphia   CLOUDY    62  58  86 NW7       29.67
Allentown      CLOUDY    59  55  87 SW5       29.67F
Scranton       CLOUDY    55  55 100 VRB3      29.69S
$$

CTZ002-004>006-009-010-012-RIZ004-006-007-MAZ004-011-015-260400-
Southern New England

 In CT

CITY           SKY/WX    TMP DP  RH WIND       PRES   REMARKS
Bradley Intl   HVY RAIN  55  55 100 CALM      29.66F FOG
Hartford       LGT RAIN  56  55  97 E5        29.65F FOG
Danbury        FOG       55  55 100 CALM      29.67S VSB 1
Wtrbury/Oxford RAIN      55  55 100 SE3       29.66F VSB 1/2
Norwalk Harbor   N/A     48 N/A N/A E1          N/A
Bridgeport     FOG       51  50  96 E3        29.66F VSB 1/2
Meriden        LGT RAIN  56  56 100 S3        29.66S FOG
New Haven      LGT RAIN  55  54  96 CALM      29.65F
Chester        FOG       55  55 100 S8        29.67F VSB 1/4
Groton         FOG       50  50 100 S6        29.68F VSB 1/4
Willimantic    CLOUDY    56  55  97 CALM      29.67F FOG

 In RI

CITY           SKY/WX    TMP DP  RH WIND       PRES   REMARKS
Providence     FOG       55  55 100 SE7       29.70F VSB 1
Block Island   FOG       52  52 100 S15       29.69F VSB 1/2
Westerly       FOG       54  54 100 S12       29.69F VSB 1/4

In MA

CITY           SKY/WX    TMP DP  RH WIND       PRES   REMARKS
Boston         LGT RAIN  50  49  96 E7        29.71  FOG
Worcester      FOG       52  52 100 NE5       29.69F VSB 1/4
Westfield      CLOUDY    56  56 100 CALM      29.65F
Provincetown   LGT RAIN  53  52  96 SE14G23   29.73F
Nantucket      RAIN      50  50 100 SE21G30   29.74F VSB 1
$$

ANZ330-335-338-340-345-350-353-355-260400-
Coastal Marine Observations


STATION/POSITION TIME  SKY/WX   TEMP    WIND        PRES    VSBY  WAVE
                                AIR SEA DIR/SP/G                  HT/PER
                 (UTC)          (F)     (DEG/KT/KT) (MB)    (MI)  (FT/S)
NY Harb Entrance 0250            48 47  130/  4/  8 1004.8          9/11
20 S Fire Island 0250            47 44  210/  4/  8 1004.6         11/11
23 SSW Montauk P 0250            48 44  200/  8/ 10 1005.1         12/11
15 E Barnegat Li 0230               46                N/A           8/11
Hudson Canyon    0250            52 45  170/ 10/ 12 1004.7         12/11
Kings Point      0230            49 47   60/  3/  4 1005.7
Execution Rocks  NOT AVBL
Western LI Sound NOT AVBL
Central LI Sound 0230            51     180/  4/  6   N/A           1
Robbins Reef     0230            54     150/  3/  3 1005.1
$$


>>>>>>>>>>>>>>>>>>>>>>>>>>>> KEY <<<<<<<<<<<<<<<<<<<<<<<<<<<
>                                                          <
>     SKY/WX - Sky Condition/Present Weather               <
>     TMP    - Temperature in Fahrenheit                   <
>     DP     - Dew Point in Fahrenheit                     <
>     RH     - Relative Humidity in Percent                <
>     WIND   - Direction (from) and Speed in MPH           <
>     PRES   - Mean Sea Level Pressure (inches of Hg)      <
>     WCI    - Wind Chill Index                            <
>     VSB    - Visibility in Miles                         <
>     HX     - Heat Index                                  <
>     TC     - Temperature in Celsius                      <
>     VRB    - Varibale Wind Direction                     <
>                                                          <
>>>>>>>>>>>>>>>>>>>>>>>>>>>> KEY <<<<<<<<<<<<<<<<<<<<<<<<<<<




USA.gov is the U.S. government's official web portal to all federal, state and local government web resources and services.